Lapse_Rate
5.5 5.5 5.5 5.5 5.6 5.7 5.8 5.9 5.9 6.0 6.0 6.0 6.0 6.0 6.0 5.9 5.9 5.9 6.0 5.8 5.9 6.0 6.0 6.0 6.0 6.3 6.1 6.2 6.2 6.3 6.2 6.0 6.2 6.5 6.6 6.0 6.3 6.2 6.1 6.0 6.0 6.3 6.3 6.3 5.9
5.7 5.6 5.6 5.6 5.7 5.7 5.8 5.9 5.9 6.0 6.0 6.1 6.1 6.1 6.1 6.1 6.1 6.1 6.0 5.8 5.9 6.0 6.0 5.9 6.0 6.0 6.0 6.1 6.1 6.2 6.3 6.2 6.3 6.5 6.3 6.1 6.4 6.3 6.3 6.3 6.1 6.0 6.1 6.3 5.9
5.7 5.7 5.7 5.7 5.8 5.9 5.9 6.0 6.0 6.1 6.1 6.1 6.1 6.0 6.0 6.1 6.2 6.3 6.0 5.7 5.9 5.9 6.0 6.0 6.0 5.9 5.8 6.0 6.2 6.5 6.4 6.2 6.1 6.3 6.4 6.5 6.6 6.6 6.2 6.4 6.1 5.9 5.9 6.0 6.0
5.8 5.8 5.9 5.9 6.0 6.0 6.0 6.0 6.1 6.2 6.3 6.3 6.2 6.2 6.1 6.2 6.2 6.3 6.2 5.8 5.7 5.7 5.9 5.9 6.1 6.0 6.0 6.1 6.4 7.0 6.6 6.1 6.1 6.6 6.6 6.7 6.7 6.6 6.3 6.2 6.1 6.0 5.9 5.8 6.0
5.9 5.9 6.0 6.0 6.1 6.2 6.2 6.3 6.3 6.3 6.4 6.4 6.4 6.3 6.3 6.2 6.2 6.2 6.2 6.1 5.8 5.7 5.8 5.8 6.0 6.2 6.2 6.3 6.5 7.0 6.7 5.9 6.1 6.7 6.7 6.8 6.7 6.6 6.2 6.2 6.0 5.9 5.9 5.7 5.8
5.9 6.0 6.0 6.1 6.2 6.3 6.4 6.4 6.5 6.5 6.6 6.6 6.5 6.5 6.4 6.3 6.3 6.3 6.2 6.3 6.0 5.7 5.9 5.9 5.9 6.0 6.1 6.6 6.6 7.1 6.9 6.0 6.2 6.4 6.4 6.4 6.5 6.4 6.4 6.2 6.1 5.8 5.8 5.7 5.5
6.0 6.1 6.2 6.2 6.2 6.3 6.4 6.5 6.6 6.7 6.7 6.7 6.7 6.6 6.6 6.5 6.5 6.4 6.3 6.3 6.1 5.7 6.0 5.9 5.9 5.9 6.0 6.4 6.8 6.9 6.9 6.2 6.5 6.6 6.6 6.9 7.0 7.2 6.6 6.4 6.3 5.8 5.8 5.5 5.7
6.0 6.1 6.2 6.3 6.3 6.4 6.5 6.4 6.5 6.6 6.7 6.7 6.8 6.7 6.7 6.6 6.4 6.5 6.4 6.4 6.4 6.0 5.8 5.9 6.0 6.0 6.1 6.5 6.8 6.9 6.7 6.4 6.8 6.6 6.6 6.8 7.5 7.0 7.0 6.6 6.3 6.0 6.1 5.9 5.7
6.0 6.0 6.1 6.2 6.2 6.2 6.4 6.4 6.5 6.4 6.5 6.7 6.7 6.6 6.6 6.5 6.3 6.3 6.3 6.4 6.4 6.3 5.8 5.9 6.0 6.0 6.2 6.5 6.7 6.8 6.8 6.7 6.7 6.6 6.4 6.6 7.2 6.8 7.1 7.2 6.5 6.0 6.2 6.0 5.7
6.0 6.1 6.2 6.3 6.1 6.2 6.4 6.3 6.4 6.4 6.6 6.5 6.5 6.5 6.5 6.3 6.2 6.1 6.3 6.4 6.4 6.2 6.0 5.9 6.1 6.1 6.3 6.4 6.4 6.3 6.5 7.0 7.0 6.8 6.8 6.6 7.0 7.2 7.2 7.2 7.1 6.3 6.1 6.3 6.1
5.9 6.0 6.2 6.2 6.2 6.3 6.4 6.4 6.2 6.4 6.4 6.2 6.3 6.1 6.3 6.4 6.2 6.1 6.3 6.4 6.4 6.2 6.1 5.9 6.2 6.4 6.4 6.3 6.3 6.3 6.7 7.0 7.6 7.6 7.3 7.2 7.1 6.9 6.9 6.8 7.3 7.3 6.5 6.5 6.3
5.9 6.0 6.1 6.2 6.3 6.3 6.4 6.4 6.4 6.2 6.3 6.1 6.3 5.8 6.2 6.4 6.2 6.1 6.1 6.3 6.5 6.4 6.1 6.1 6.6 6.5 6.4 6.3 6.4 6.5 6.8 7.3 7.8 7.7 7.6 7.4 7.1 7.2 7.2 7.6 7.2 7.3 7.3 6.9 6.4
6.1 6.1 6.2 6.3 6.4 6.5 6.5 6.4 6.3 6.2 6.4 6.4 6.5 6.2 5.9 6.0 6.0 6.1 5.9 5.9 6.4 6.4 6.2 6.2 6.7 6.5 6.4 6.4 6.5 6.7 7.1 7.4 7.5 7.4 7.7 7.7 7.4 7.3 7.9 7.8 7.6 7.7 7.4 7.2 6.7
6.7 6.4 6.4 6.5 6.6 6.6 6.4 6.3 6.1 6.0 6.3 6.3 6.4 6.4 6.2 5.9 5.8 5.9 5.8 5.8 5.8 6.4 6.2 6.3 6.6 6.7 6.3 6.5 6.5 6.8 7.7 7.4 7.3 7.1 7.5 7.1 7.0 7.7 7.9 7.9 7.9 8.0 7.8 7.2 6.9
7.1 6.6 6.7 6.7 6.7 6.5 6.3 6.2 6.0 6.0 5.5 6.4 6.3 6.6 6.6 5.9 6.1 6.0 5.9 5.7 6.1 6.2 5.9 6.8 6.5 6.7 6.8 7.1 6.8 7.4 7.5 7.1 7.2 7.0 6.4 6.8 6.4 8.0 8.0 8.5 8.4 8.4 8.5 7.9 7.4
7.0 6.7 6.7 6.7 6.7 6.4 6.1 6.0 5.9 5.9 5.9 6.2 6.2 6.2 6.5 6.2 6.2 6.1 5.9 5.8 5.8 5.7 6.3 6.7 6.7 6.6 7.0 7.1 7.0 7.5 7.2 7.4 7.4 7.2 5.6 7.5 6.5 7.8 8.3 8.6 9.2 9.1 8.6 8.2 7.7
6.9 6.7 6.6 6.5 6.5 6.4 6.1 5.9 5.9 5.9 6.3 6.2 6.2 6.5 6.4 6.4 6.4 6.5 6.3 6.1 5.9 5.8 6.1 6.6 6.8 6.9 7.2 7.4 7.4 7.5 7.6 7.5 6.7 6.1 5.5 7.9 6.6 8.0 8.7 8.7 9.1 9.2 8.7 8.1 7.9
6.9 6.8 6.5 6.4 6.5 6.3 6.1 5.9 5.9 6.0 5.9 6.1 6.5 6.8 6.7 6.5 6.6 6.7 6.6 6.5 6.6 6.5 6.4 6.6 7.2 7.4 7.7 7.8 8.0 8.1 8.3 7.8 6.5 5.4 6.7 7.2 6.6 7.6 8.1 8.7 9.0 8.9 8.5 8.1 7.7
6.8 6.8 6.7 6.5 6.4 6.3 6.1 5.9 6.2 5.9 5.8 6.3 6.7 6.7 6.6 6.8 6.9 6.8 7.0 7.0 7.2 7.2 6.7 7.0 7.1 7.5 7.4 8.0 8.5 8.3 8.4 8.4 8.3 6.7 6.2 7.7 7.7 7.5 8.1 8.6 9.1 9.0 8.3 8.3 8.1
6.6 6.7 6.6 6.6 6.4 6.1 5.9 6.0 5.9 5.6 5.7 6.0 6.4 6.6 6.7 6.7 7.0 7.3 7.6 7.3 7.2 7.3 7.4 7.4 7.0 7.4 7.6 7.6 8.1 8.2 8.5 8.5 8.4 6.9 6.3 6.6 7.4 7.6 8.1 8.7 9.0 8.9 8.4 8.1 8.2
6.3 6.4 6.3 6.3 6.1 5.9 5.8 5.8 5.7 5.7 5.9 6.2 6.4 6.4 6.5 6.7 6.8 7.1 7.7 7.2 7.4 7.6 8.0 7.9 7.5 8.0 7.6 7.6 8.2 8.6 8.6 8.8 8.3 8.2 6.4 5.6 7.3 8.3 8.5 8.7 8.8 8.9 9.0 8.5 8.2
5.9 5.8 5.8 5.8 5.6 5.6 5.6 5.5 5.3 5.4 5.5 5.9 6.3 6.5 6.6 6.6 6.6 6.7 7.1 7.2 7.5 7.4 7.9 7.9 7.6 7.8 7.9 8.6 8.3 8.1 8.5 8.7 8.8 8.4 8.1 7.6 7.6 8.5 8.4 8.7 8.8 8.9 9.0 8.8 8.2
5.8 5.7 5.3 5.3 5.3 5.2 5.3 5.2 5.1 5.3 5.3 5.6 6.0 6.1 6.4 6.5 6.6 6.7 7.0 7.1 7.2 7.6 7.7 7.7 7.5 7.7 8.4 8.6 8.6 8.2 8.6 8.5 8.9 8.9 8.5 7.6 7.9 8.9 8.7 8.7 8.9 8.7 9.0 8.9 8.3
5.7 5.5 5.3 5.0 5.0 5.1 5.1 4.9 5.0 5.0 5.2 5.5 5.8 6.0 6.1 6.2 6.3 6.7 7.1 7.3 7.5 7.7 8.0 8.0 7.9 7.8 7.6 8.0 8.1 8.3 8.5 8.6 8.8 8.7 8.9 8.8 8.7 8.8 9.0 8.7 8.8 8.9 9.2 9.0 8.6
5.6 5.2 5.2 4.9 4.7 4.9 5.1 5.0 5.2 5.4 5.3 5.4 5.7 5.9 6.1 6.2 6.3 6.3 6.6 6.9 7.1 7.3 7.4 7.7 7.9 8.0 8.1 8.0 7.8 8.2 8.4 8.8 8.9 8.9 9.0 8.9 8.8 9.1 9.0 8.9 9.0 9.2 9.2 9.0 8.8
5.3 5.1 4.8 4.7 4.4 4.3 4.4 4.6 4.9 5.3 5.4 5.1 5.5 5.6 5.9 6.1 6.2 6.3 6.3 6.6 6.9 7.0 7.1 7.3 7.4 7.3 7.9 8.4 8.2 7.8 8.0 8.2 8.5 8.7 8.7 8.8 9.1 8.9 9.1 9.1 9.2 9.5 9.5 9.3 9.1
4.9 4.6 4.5 4.5 4.5 4.4 4.4 4.4 4.6 5.1 5.4 5.1 5.3 5.5 5.6 5.8 6.0 6.2 6.2 6.2 6.5 6.8 7.0 7.1 7.2 7.0 6.8 7.8 7.9 7.7 8.1 8.4 8.4 8.5 8.8 8.9 9.1 9.2 9.0 9.1 9.3 9.5 9.5 9.4 9.1
Wind_Speed
14 14 14 14 15 15 15 15 14 14 14 13 12 11 11 12 14 2 6 8 6 15 12 7 3 2 2 2 1 2 3 2 5 5 3 2 3 3 4 6 0 2 4 6 14
14 14 15 16 16 16 16 15 15 15 14 13 11 10 10 10 2 7 11 12 11 18 7 8 6 6 2 2 1 2 3 5 3 3 3 2 3 6 4 3 3 5 8 13 14
15 16 16 15 15 15 15 15 15 15 14 13 11 10 8 8 3 7 6 17 18 16 8 6 6 6 3 3 4 3 4 3 4 6 1 1 2 1 10 3 5 7 12 12 12
17 17 16 16 16 15 15 16 16 15 13 11 10 8 6 1 3 2 3 16 20 9 6 6 4 5 3 4 4 2 6 4 3 3 3 4 4 3 3 5 7 11 13 10 12
18 18 17 17 17 17 16 17 16 15 13 9 7 4 3 1 8 4 4 18 12 8 9 6 5 5 3 3 3 5 3 3 4 4 1 4 3 3 7 5 13 14 12 10 9
19 18 18 18 18 18 18 18 18 16 12 7 4 3 1 2 2 0 8 9 7 7 6 6 6 6 2 2 2 3 4 2 2 2 1 4 1 2 2 11 13 13 11 10 10
20 20 20 19 19 19 20 20 19 16 11 6 5 3 1 11 3 2 7 4 6 6 6 3 3 2 0 4 1 2 3 2 0 1 2 2 3 5 6 11 12 13 11 10 11
21 21 21 22 21 21 21 21 20 14 6 5 9 1 6 4 4 4 2 4 6 3 2 4 2 1 1 3 4 2 3 1 2 5 2 3 7 4 10 14 13 12 11 11 11
21 22 23 23 23 22 21 22 15 4 7 12 3 1 8 4 2 5 3 5 6 2 1 2 3 2 4 4 4 5 2 2 2 8 4 5 5 3 12 14 13 12 11 11 8
23 24 24 23 23 21 20 13 8 10 5 4 3 2 5 3 4 4 4 7 4 5 1 2 4 3 4 4 3 3 3 3 4 5 5 8 13 1 10 13 14 13 11 11 11
25 25 25 24 24 18 8 4 2 2 2 8 5 3 4 5 4 3 5 5 4 4 5 1 3 7 9 6 3 1 2 6 3 4 5 12 10 9 11 10 11 11 12 12 14
26 26 26 26 24 15 5 3 6 3 6 10 10 6 4 2 5 3 5 5 3 4 4 4 8 6 6 4 3 3 3 7 6 3 5 3 9 9 11 20 19 17 15 15 13
27 27 26 26 27 3 1 4 4 4 1 6 5 5 5 8 6 5 8 5 4 4 4 6 4 5 7 5 4 3 5 4 8 2 3 4 8 5 6 6 14 16 17 14 17
26 26 24 28 1 3 3 1 6 4 4 5 3 5 3 8 3 7 7 6 1 10 7 5 5 3 3 5 7 5 8 7 3 2 3 4 4 5 5 7 12 16 17 17 16
26 24 19 9 5 2 1 6 4 2 3 1 2 1 3 7 4 4 5 5 8 6 7 8 6 5 4 8 8 10 5 6 3 5 1 2 2 7 3 6 13 15 18 19 18
29 23 16 2 2 6 8 6 3 5 2 3 4 4 4 2 1 3 4 5 4 5 2 7 3 6 9 6 9 4 3 6 4 3 1 7 6 6 5 9 6 6 17 18 16
33 26 5 3 3 5 5 3 4 3 3 4 3 3 2 4 2 3 6 7 6 4 4 5 6 4 5 2 2 5 5 3 3 2 6 2 3 9 8 11 11 8 13 15 14
35 17 10 3 4 6 2 5 2 2 3 3 2 1 6 5 3 3 6 6 5 5 3 4 7 6 4 9 7 6 8 6 5 4 5 3 6 6 8 8 8 9 8 11 12
24 2 2 3 9 2 5 3 5 4 3 6 7 2 2 1 5 3 7 7 7 10 8 4 5 4 4 3 9 3 3 4 7 3 3 4 8 9 6 9 7 6 7 13 14
3 3 4 3 7 3 4 4 3 3 4 2 1 3 2 0 3 4 7 3 4 12 9 7 5 6 4 3 2 5 7 3 2 2 5 4 5 6 9 11 8 6 9 11 11
3 3 5 3 1 5 3 5 4 6 3 2 2 2 1 2 4 2 3 1 3 2 8 6 3 10 2 4 7 2 1 5 4 4 6 2 6 8 10 10 9 8 9 10 13
3 3 3 2 3 1 2 3 4 5 3 3 2 6 6 5 5 3 3 2 7 1 4 5 5 6 12 3 2 6 8 6 5 5 1 4 7 6 10 8 6 11 8 8 8
2 2 3 3 2 2 4 4 2 5 5 4 3 2 3 4 1 3 3 2 9 3 3 4 1 3 10 5 2 5 5 5 4 3 7 5 8 1 5 8 8 9 7 6 8
2 3 4 4 1 3 3 3 5 7 3 4 3 3 5 2 4 3 2 2 3 3 5 5 3 6 6 6 2 5 4 5 6 4 5 6 8 12 10 9 8 7 6 6 5
3 0 3 3 2 3 1 2 2 5 4 7 4 4 3 2 1 1 1 4 3 7 3 4 5 3 6 8 4 6 6 6 7 5 6 5 8 9 8 7 5 6 6 5 6
2 3 4 1 3 3 3 1 1 4 2 4 2 5 2 4 2 5 3 3 3 2 2 2 1 1 4 5 3 5 8 6 6 3 6 4 6 9 4 2 4 8 5 4 6
2 2 2 2 2 1 2 1 2 3 4 1 4 2 3 1 4 6 5 3 3 6 3 2 4 2 4 4 7 6 8 8 7 5 7 5 9 3 4 7 7 7 8 8 8
Wind_Direction
358 357 353 349 344 341 337 336 332 331 327 322 314 310 314 320 313 158 236 216 165 150 128 127 134 177 129 268 145 125 68 294 197 166 226 312 166 81 81 127 86 34 139 149 137
355 354 348 340 338 336 334 332 329 327 324 320 313 309 314 328 297 248 239 210 155 146 115 149 161 153 156 204 244 126 140 228 226 216 192 84 84 123 111 141 52 70 85 117 134
353 346 343 339 337 334 330 328 327 324 322 321 315 312 314 322 320 246 211 199 169 173 149 149 122 164 202 152 209 172 209 192 269 244 163 132 114 128 130 254 198 175 149 141 147
349 345 341 337 334 331 326 325 325 322 320 317 313 314 311 289 187 123 276 181 161 147 115 129 138 154 203 210 204 222 238 172 283 253 187 180 111 97 156 212 145 148 150 151 159
346 342 339 336 331 327 324 323 320 318 315 308 306 285 307 15 252 327 30 148 136 142 158 152 147 168 214 222 157 223 204 170 291 243 118 116 100 126 241 111 126 135 153 170 175
342 339 336 334 329 326 323 322 318 314 307 287 284 230 182 278 279 6 117 119 141 127 164 142 189 208 239 272 182 320 150 162 287 180 204 183 150 131 76 136 137 148 174 183 188
340 336 333 331 328 326 322 319 315 308 295 252 200 202 137 237 8 72 129 125 148 135 151 194 173 83 101 336 132 41 74 30 130 256 315 120 291 210 155 153 155 170 187 197 196
338 335 332 328 327 325 322 319 314 299 266 192 166 243 245 251 17 124 151 91 89 47 96 155 170 81 122 290 15 55 67 40 250 135 291 74 275 215 163 159 175 186 196 201 207
334 332 328 326 324 324 326 324 322 117 135 141 121 166 269 325 212 198 178 136 103 91 312 188 117 114 35 85 11 8 275 217 280 188 142 176 272 272 173 179 179 195 200 204 210
330 328 326 324 322 324 327 316 93 100 123 208 252 350 277 220 186 159 152 143 140 126 91 107 59 84 37 77 219 269 282 261 226 206 180 201 255 156 196 180 191 197 204 201 209
326 326 325 325 323 323 319 105 27 32 234 197 185 234 295 287 115 188 156 127 114 94 143 96 109 197 201 183 192 224 256 278 227 209 178 208 240 223 192 199 204 205 209 210 214
326 325 326 326 327 325 152 156 132 171 300 236 235 268 276 31 359 85 125 132 129 166 116 43 232 208 148 181 195 244 287 278 300 201 186 271 235 227 195 207 204 203 208 211 220
324 323 327 327 325 136 258 231 88 106 199 294 186 201 207 141 214 243 135 139 135 148 161 166 260 135 156 168 180 216 211 227 240 41 213 359 306 205 241 210 215 216 215 206 208
324 323 327 328 331 321 253 208 325 185 46 275 262 272 120 137 231 198 173 138 137 191 149 227 263 228 144 236 155 258 210 239 264 102 247 160 264 285 218 223 221 217 211 209 199
324 324 321 323 305 220 125 322 280 76 35 62 130 119 144 165 152 213 192 74 176 175 126 239 184 181 160 215 160 236 167 218 217 179 43 263 67 268 171 246 236 214 207 210 201
323 320 317 133 209 247 322 319 72 41 275 38 126 142 135 266 13 95 134 87 137 133 252 234 220 168 200 188 184 106 102 39 50 104 61 233 172 274 241 227 264 204 205 202 197
325 316 269 202 226 332 322 53 46 136 324 341 80 131 229 202 217 124 154 170 170 129 252 336 250 236 179 176 150 98 76 341 348 9 217 54 132 241 267 247 237 220 209 199 187
327 324 177 221 289 347 56 59 166 256 286 331 2 155 179 159 219 132 125 188 252 87 107 186 317 174 196 179 175 173 156 161 219 203 243 89 228 251 249 282 257 225 193 188 183
327 343 137 272 217 343 73 87 209 209 311 333 328 119 133 150 130 138 192 199 207 171 175 164 272 277 195 193 138 194 183 185 107 38 68 241 290 299 294 291 262 225 177 192 192
346 347 346 25 154 70 76 226 233 220 318 26 347 42 131 103 124 162 182 189 224 195 181 218 284 229 237 153 72 163 157 80 5 186 259 276 280 237 292 282 291 235 215 199 194
26 53 322 9 4 50 150 229 278 251 247 247 232 285 279 149 146 185 197 70 333 15 170 140 143 257 51 186 191 113 210 57 127 137 181 226 260 220 233 248 274 260 230 208 199
11 60 303 20 47 31 128 205 270 294 355 285 242 211 199 199 179 206 191 56 324 188 133 202 159 242 230 280 187 177 192 143 129 237 202 160 264 226 235 270 274 280 257 198 201
50 270 312 83 87 346 311 299 282 344 326 340 301 34 10 200 211 195 99 177 20 72 123 181 301 347 335 358 22 198 187 151 120 95 192 157 269 83 286 289 276 270 251 193 191
37 15 333 45 46 101 19 304 333 332 299 349 296 16 15 23 13 160 85 28 329 49 53 117 131 173 199 220 258 293 194 162 140 132 175 218 266 288 282 260 275 280 251 197 145
27 8 177 331 355 9 266 329 359 352 347 5 37 27 269 245 83 133 333 346 7 350 74 97 193 216 261 257 217 242 261 178 170 218 164 226 199 256 268 273 249 244 229 171 140
43 27 356 303 322 332 360 106 336 327 282 331 31 316 3 131 173 202 187 242 207 353 77 15 249 325 276 276 330 266 262 229 248 180 263 231 253 221 252 214 217 218 220 179 165
329 334 109 308 344 73 221 321 278 2 262 63 307 276 263 86 298 261 235 227 224 176 166 133 127 80 267 341 321 284 223 214 218 203 169 178 227 208 237 225 234 226 177 187 179